Location: Brno
(49.2000°N, 16.6330°E)
Time: 04:14:15
(UTC+02:00)

Cosmos 1603 - Visible Passes

Search period start: 31 August 2014 00:00
Search period end: 10 September 2014 00:00
Orbit: 830 x 861 km, 71.0° (Epoch: 30 August)

Date Brightness Start Highest point End Pass type
(mag) Time Alt. Az. Time Alt. Az. Time Alt. Az.
05 Sep 6.6 05:40:15 10° SE 05:43:28 16° E 05:46:43 10° ENE visible
06 Sep 6.5 05:26:33 10° SE 05:29:41 15° E 05:32:49 10° ENE visible
07 Sep 6.5 05:12:53 10° SE 05:15:53 15° E 05:18:55 10° ENE visible
08 Sep 6.5 04:59:12 10° SE 05:02:06 14° E 05:05:00 10° ENE visible
09 Sep 6.5 04:45:32 10° SE 04:48:18 14° E 04:51:05 10° ENE visible
